Regional Weather Roundup
Issued by NWS Sterling, VA

Home | Current Version | Previous Version | Graphics & Text | Print | Product List | Glossary On
Versions: 1 2 3 4 5 6 7 8 9 10 11 12 13 14 15 16 17 18 19 20 21 22 23 24 25 26 27
000
ASUS41 KLWX 201511
RWRLWX

REGIONAL WEATHER ROUNDUP
NATIONAL WEATHER SERVICE BALTIMORE MD/WASHINGTON DC
1100 AM EDT THU JUL 20 2017

Note: "FAIR" indicates few or no clouds below 12,000 feet
with no significant weather and/or obstructions to visibility.
 TC=TEMPERATURE CELSIUS

 * =Non NWS site. Station does not report precipitation (e.g. rain,
    snow, etc.), thunder, or fog.

DCZ001-MDZ009-015-VAZ040>042-051-053>054-201600-
WASHINGTON METRO

CITY           SKY/WX    TMP DP  RH WIND       PRES   REMARKS
WASHINGTON NAT PTSUNNY   92  72  51 NW8       30.02F HX  99
DULLES         PTSUNNY   88  71  57 NW5       30.04F HX  94
ANDREWS AFB    MOSUNNY   92  70  48 NW6       30.02S HX  97
FT BELVOIR     SUNNY     93  71  48 NW3       30.02F HX 100
QUANTICO       PTSUNNY   87  78  74 S6        30.03F HX 100
COLLEGE PARK*  SUNNY     91  70  51 W6        30.01F HX  96
LEESBURG*      SUNNY     90  73  58 W5        30.06S HX  98
MANASSAS*      SUNNY     90  72  55 NW6       30.04F HX  97
GAITHERSBURG*  MOSUNNY   87  74  64 NW5       30.06F HX  95

$$

MDZ006>007-011-014-201600-
BALTIMORE METRO

CITY           SKY/WX    TMP DP  RH WIND       PRES   REMARKS
BWI AIRPORT    PTSUNNY   92  72  51 W8        30.01S HX  99
MD SCIENCE CTR   N/A     94  71  47 MISG      30.01S HX 101
MARTIN STATE   PTSUNNY   90  77  66 E3        30.02S HX 102
ANNAPOLIS      SUNNY     87  79  76 NE3       30.00F HX 101
FORT MEADE*      N/A     90  72  55 W3        30.04S HX  96

$$

MDZ012-015-019>023-201600-
MARYLAND EASTERN SHORE

CITY           SKY/WX    TMP DP  RH WIND       PRES   REMARKS
OCEAN CITY     SUNNY     87  78  74 S6        30.02S HX 100
SALISBURY      NOT AVBL
BAY BRIDGE AP* SUNNY     86  75  70 CALM      30.01F HX  95
CAMBRIDGE*     SUNNY     90  75  62 VRB5      30.02S HX 100
EASTON*        SUNNY     90  75  62 W3        30.05S HX 100

$$

MDZ017>025-201600-
SOUTHERN MARYLAND

CITY           SKY/WX    TMP DP  RH WIND       PRES   REMARKS
PATUXENT RIVER PTSUNNY   88  73  61 CALM      30.02F HX  95
ST INIGOES     SUNNY     86  76  71 VRB3      30.02S HX  96
LEONARDTOWN*   MOSUNNY  N/A N/A N/A CALM      30.04F

$$

MDZ003>005-201600-
NORTH CENTRAL MARYLAND

CITY           SKY/WX    TMP DP  RH WIND       PRES   REMARKS
FREDERICK*     SUNNY     90  68  48 NW5       30.07S HX  93
HAGERSTOWN APT SUNNY     87  73  62 VRB6      30.06F HX  94
WESTMINSTER*   SUNNY     88  72  58 NW6       30.06F HX  94

$$

MDZ501>502-201600-
WESTERN MARYLAND

CITY           SKY/WX    TMP DP  RH WIND       PRES   REMARKS
OAKLAND*       MOSUNNY   73  68  83 W5        30.17F
CUMBERLAND*    SUNNY     86  72  62 E3        30.11S HX  92

$$

VAZ025>031-201600-
SHENANDOAH VALLEY

CITY           SKY/WX    TMP DP  RH WIND       PRES   REMARKS
WINCHESTER*    MOSUNNY   86  70  58 SW6       30.07S HX  90
FRONT ROYAL*   SUNNY     88  70  55 SE6       30.07F HX  92
LURAY*         SUNNY     84  70  61 CALM      30.09F
NEW MARKET*    MOSUNNY   87  69  54 CALM      30.08F HX  91
STAUNTON*      SUNNY     84  67  57 CALM      30.14R
WAYNESBORO*    SUNNY     85  68  57 CALM      30.13S

$$

WVZ021-048>050-054>055-201600-
EASTERN WEST VIRGINIA PANHANDLE

CITY           SKY/WX    TMP DP  RH WIND       PRES   REMARKS
MARTINSBURG    SUNNY     88  70  55 W7        30.05F HX  93
PETERSBURG*    SUNNY     88  72  58 SE6       30.09F HX  94

$$

VAZ036>039-050-201600-
CENTRAL FOOTHILLS

CITY           SKY/WX    TMP DP  RH WIND       PRES   REMARKS
CHARLOTTESVILL SUNNY     90  68  48 VRB3      30.07S HX  94
CULPEPER*      SUNNY     91  73  56 CALM      30.05F HX  98
ORANGE*        SUNNY     88  70  55 N3        30.06S HX  92
GORDONSVILLE*  SUNNY     91  71  52 CALM      30.05S HX  97
WARRENTON*     SUNNY     92  67  44 CALM      30.05S HX  96

$$

VAZ055>057-201600-
NORTH AND CENTRAL PIEDMONT

CITY           SKY/WX    TMP DP  RH WIND       PRES   REMARKS
FREDERICKSBRG* MOSUNNY   90  73  57 CALM      30.03F HX  98
STAFFORD*      SUNNY     89  73  58 CALM      30.08S HX  97

$$

NCZ024-NYZ072-PAZ021-071-VAZ022-071-201600-
OTHER REGIONAL OBSERVATIONS

CITY           SKY/WX    TMP DP  RH WIND       PRES   REMARKS
NEW YORK CITY  SUNNY     87  71  58 CALM      30.00F HX  93
PHILADELPHIA   PTSUNNY   89  71  55 SW10      29.99F HX  95
PITTSBURGH     CLOUDY    83  68  60 SW13      30.07F
ROANOKE        SUNNY     87  68  52 VRB5      30.15S HX  90
RICHMOND       CLOUDY    91  71  51 W7        30.04S HX  97
RALEIGH        MOSUNNY   90  70  51 NW3       30.09R HX  95

$$

ANZ530>537-201600-
MARINE OBSERVATIONS

STATION/POSITION TIME  TEMP    WIND        PRES
                       AIR SEA DIR/SP/G
                 (UTC) (F)     (DEG/KT/KT) (MB)
THOMAS PT LIGHT  1500   83 82  160/  5/  5   N/A
BALT KEY BRIDGE  1448   87     100/  3/  4 1015.9F
COVE POINT       1448   84     130/  4/  5 1017.4R
LEWISETTA        1448   86 84  100/  2/  3 1016.9S
SOLOMONS ISLAND  1448   90 84  240/  4/  5   N/A
PINEY POINT      1448          340/  5/  5   N/A

$$





USA.gov is the U.S. government's official web portal to all federal, state and local government web resources and services.